Regional Weather Roundup
Issued by NWS

Home | Current Version | Previous Version | Text Only | Print | Product List | Glossary On
Versions: 1 2 3 4 5 6 7 8 9 10 11 12 13 14 15 16 17 18 19 20 21 22 23 24 25 26 27 28 29 30 31 32 33 34 35 36 37 38 39 40 41 42 43 44 45 46 47 48 49 50
000
ASUS44 KLIX 251210
RWRLA
LOUISIANA WEATHER ROUNDUP
NATIONAL WEATHER SERVICE NEW ORLEANS LA
700 AM CDT SAT OCT 25 2014

NOTE: "FAIR" INDICATES FEW OR NO CLOUDS BELOW 12,000 FEET WITH NO
      SIGNIFICANT WEATHER AND/OR OBSTRUCTIONS TO VISIBILITY.
      SKY/WX - SKY CONDITION AND SIGNIFICANT WEATHER.
      TMP - AIR TEMPERATURE.    DP   - DEWPOINT TEMPERATURE.
      RH  - RELATIVE HUMIDITY.  PRES - PRESSURE.
      HX  - HEAT INDEX.         WCI  - WIND CHILL INDEX.

*  THESE STATIONS ARE NOT NWS OR FAA STATIONS AND ARE NOT UNDER
   NWS QUALITY CONTROL.

LAZ040-048-061>063-065-066-069-251300-
SOUTHEAST LOUISIANA

CITY           SKY/WX    TMP DP  RH WIND       PRES   REMARKS
N.O. AUDUBON     N/A     58  53  81 MISG        N/A
6HR MIN TEMP:  58; 6HR MAX TEMP:  64;

N.O. INTL ARPT CLEAR     59  50  72 NE5       30.13R
6HR MIN TEMP:  59; 6HR MAX TEMP:  64;

N.O. LAKEFRONT CLEAR     64  53  67 NE9       30.13R
6HR MIN TEMP:  64; 6HR MAX TEMP:  68;

N.O. DOWNTOWN* FAIR      63  48  59 CALM      30.13R
6HR MIN TEMP:  63; 6HR MAX TEMP:  66;

SLIDELL        CLEAR     45  42  89 CALM      30.11S
6HR MIN TEMP:  45; 6HR MAX TEMP:  51;

BATON ROUGE    CLEAR     48  45  89 CALM      30.13S
6HR MIN TEMP:  47; 6HR MAX TEMP:  52;

BOOTHVILLE     CLEAR     68  57  68 N7        30.11R
6HR MIN TEMP:  67; 6HR MAX TEMP:  70;

BELLE CHASSE   PTCLDY    50  47  89 CALM      30.12R
6HR MIN TEMP:  49; 6HR MAX TEMP:  52;

BOGALUSA*        N/A     44  41  89 CALM      30.14R
6HR MIN TEMP:  43; 6HR MAX TEMP:  49;

NEW ROADS*     FAIR      46  45  97 CALM      30.14S
6HR MIN TEMP:  46; 6HR MAX TEMP:  50;

GONZALES*      FAIR      48  48 100 CALM      30.13S
6HR MIN TEMP:  48; 6HR MAX TEMP:  53;

HAMMOND*       CLEAR     45  43  93 CALM      30.14S
HOUMA*         CLEAR     52  52 100 CALM      30.13R
PORT FOURCHON* SUNNY     64  57  77 N5        30.15R

$$

LAZ041-044-053-054-251300-
SOUTHWEST LOUISIANA

CITY           SKY/WX    TMP DP  RH WIND       PRES   REMARKS
LAKE CHARLES   CLEAR     50  48  93 CALM      30.15R
6HR MIN TEMP:  50; 6HR MAX TEMP:  54;

LAFAYETTE      CLEAR     50  50 100 CALM      30.14R
6HR MIN TEMP:  49; 6HR MAX TEMP:  56;

PATTERSON      CLEAR     52  50  93 CALM      30.16S
6HR MIN TEMP:  52; 6HR MAX TEMP:  57;

SALT POINT       N/A     56  51  84 CALM      30.13R
6HR MIN TEMP:  56; 6HR MAX TEMP:  61;

NEW IBERIA     CLEAR     53  48  83 N3        30.15R
6HR MIN TEMP:  50; 6HR MAX TEMP:  55;

CHENAULT AIRPK CLEAR     52  48  87 CALM      30.15S

$$

LAZ027-028-251300-
CENTRAL LOUISIANA

CITY           SKY/WX    TMP DP  RH WIND       PRES   REMARKS
FORT POLK      CLEAR     49  48  96 CALM      30.15R
6HR MIN TEMP:  48; 6HR MAX TEMP:  53;

ALEXANDRIA INT CLEAR     46  45  96 SW3       30.14R
6HR MIN TEMP:  44; 6HR MAX TEMP:  52;

ALEXANDRIA     CLEAR     43  42  97 CALM      30.15R
6HR MIN TEMP:  42; 6HR MAX TEMP:  47;


$$

LAZ001-002-251300-
NORTHWEST LOUISIANA

CITY           SKY/WX    TMP DP  RH WIND       PRES   REMARKS
SHREVEPORT     CLEAR     54  52  93 CALM      30.13S
6HR MIN TEMP:  52; 6HR MAX TEMP:  60;

BARKSDALE AFB  CLEAR     52  51  99 SE2       30.14S
6HR MIN TEMP:  51; 6HR MAX TEMP:  56;

DTN SHREVEPORT CLEAR     54  52  93 CALM      30.14R
6HR MIN TEMP:  53; 6HR MAX TEMP:  58;


$$

LAZ014-016-251300-
NORTHEAST LOUISIANA

CITY           SKY/WX    TMP DP  RH WIND       PRES   REMARKS
MONROE         CLEAR     49  47  93 CALM      30.15R
6HR MIN TEMP:  48; 6HR MAX TEMP:  51;

TALLULAH       CLEAR     45  43  93 CALM      30.15R
6HR MIN TEMP:  43; 6HR MAX TEMP:  48;


$$




USA.gov is the U.S. government's official web portal to all federal, state and local government web resources and services.